Regional Weather Roundup
Issued by NWS

Home | Current Version | Previous Version | Graphics & Text | Print | Product List | Glossary Off
Versions: 1 2 3 4 5 6 7 8 9 10 11 12 13 14 15 16 17 18 19 20 21 22 23 24 25 26 27 28 29 30 31 32 33 34 35 36 37 38 39 40 41 42 43 44 45 46 47 48 49 50

000
ASUS43 KMPX 020710
RWRMN
WEATHER ROUNDUP FOR MINNESOTA
NATIONAL WEATHER SERVICE TWIN CITIES/CHANHASSEN MN
100 AM CST FRI DEC 02 2016


NOTE: "FAIR" INDICATES FEW OR NO CLOUDS BELOW 12,000 FEET WITH NO
SIGNIFICANT WEATHER AND/OR OBSTRUCTIONS TO VISIBILITY. N/A MEANS
CURRENT SKY AND/OR WEATHER CONDITIONS ARE NOT AVAILABLE.

MNZ060>063-068>070-020800-
   Twin Cities Metro

CITY           SKY/WX    TMP DP  RH WIND       PRES   REMARKS
TWIN CITIES    CLOUDY    32  23  69 N7        30.06R WCI  26
ST PAUL        CLOUDY    32  23  69 N13       30.07R WCI  22
CRYSTAL        CLOUDY    31  20  63 NW8       30.05R WCI  23
BLAINE         CLOUDY    34  25  69 NW8       30.05R WCI  27
LAKEVILLE      CLOUDY    30  25  80 N8        30.04R WCI  23
EDEN PRAIRIE   CLOUDY    34  23  64 NW8       30.04R WCI  27
SOUTH ST PAUL  CLOUDY    32  22  68 N6        30.06R WCI  26
LAKE ELMO      CLOUDY    32  27  80 NW5       30.06R WCI  27
$$
MNZ001>005-007-008-013>017-022>024-027-028-020800-
   Northwest Minnesota

CITY           SKY/WX    TMP DP  RH WIND       PRES   REMARKS
BEMIDJI        CLOUDY    23  19  85 NW9       30.06R WCI  13
HALLOCK        CLOUDY    28  25  86 N9G16     30.13R WCI  20
ROSEAU         CLOUDY    25  19  80 N7        30.10R WCI  17
WARROAD        CLOUDY    21  18  86 NW6       30.10R WCI  14
THIEF RVR FALL CLOUDY    26  21  81 N8        30.11R WCI  18
CROOKSTON      CLOUDY    28  23  80 N13       30.13R WCI  18
FOSSTON        CLOUDY    25  19  80 NW8       30.09R WCI  16
DETROIT LAKES  CLOUDY    27  23  86 NW9       30.09R WCI  17
MOORHEAD       CLOUDY    28  25  86 NW8       30.12R WCI  20
PARK RAPIDS    CLOUDY    25  18  74 NW10      30.06R WCI  15
$$
MNZ006-009>011-018-025>026-020800-
   North Central Minnesota

CITY           SKY/WX    TMP DP  RH WIND       PRES   REMARKS
BAUDETTE       CLOUDY    25  21  85 NW8       30.07R WCI  16
FLAG ISLAND    CLOUDY    23  19  86 N9        30.08R WCI  13
INTL FALLS     CLOUDY    26  20  77 N7        30.05R WCI  18
WASKISH        CLOUDY    25  21  86 NW7       30.07R WCI  17
BIG FORK       CLOUDY    27  21  80 NW3       30.04R
LONGVILLE      CLOUDY    27  21  80 CALM      30.05R
GRAND RAPIDS   CLOUDY    26  22  84 NW10      30.05R WCI  16
CRANE LAKE     CLOUDY    25  21  86 NW7       30.05R WCI  17
ORR            CLOUDY    25  19  80 NW3       30.00R
COOK           CLOUDY    27  23  86 NW3       30.02R
$$
MNZ012-019>021-037-020800-
   Northeast Minnesota

CITY           SKY/WX    TMP DP  RH WIND       PRES   REMARKS
DULUTH         CLOUDY    28  23  81 N8        29.99R WCI  20
ELY            CLOUDY    23  21  93 N6        30.01R WCI  16
HIBBING        CLOUDY    25  22  88 N13       30.01R WCI  14
EVELETH        CLOUDY    28  23  84 NW8       30.01R WCI  19
DULUTH HARBOR  CLOUDY    32  25  74 CALM      30.04R
TWO HARBORS    MOCLDY    30  25  80 N5        29.97R WCI  25
SILVER BAY     CLOUDY    27  23  86 NW3       29.98R
GRAND MARAIS     N/A     29  22  75 W7        29.98R WCI  22
G MARAIS ARPRT CLOUDY    19  16  86 NW6       29.92R WCI  11
$$
MNZ029>031-032-039>041-046>048-054>057-064-020800-
   West Central Minnesota

CITY           SKY/WX    TMP DP  RH WIND       PRES   REMARKS
FERGUS FALLS   CLOUDY    27  21  80 N7        30.14R WCI  19
WHEATON        CLOUDY   N/A N/A N/A N9        30.13R
MORRIS         CLOUDY    28  25  86 NW13      30.08R WCI  18
ALEXANDRIA     CLOUDY    28  22  78 NW8       30.08R WCI  20
ELBOW LAKE     CLOUDY    27  23  85 N9        30.10R WCI  18
WADENA         CLOUDY    27  21  80 NW7       30.06R WCI  19
GLENWOOD       CLOUDY    28  23  80 NW9       30.07R WCI  20
APPLETON       CLOUDY    32  25  74 NW7       30.10R WCI  26
BENSON         CLOUDY    30  23  74 NE10      30.09R WCI  21
ORTONVILLE     MIX PCPN  28  27  93 CALM      30.10R
MADISON        CLOUDY    34  30  86 NW9       30.10R WCI  26
WILLMAR        CLOUDY    32  27  80 NW9       30.08S WCI  24
$$
MNZ033>034-036-042>043-049>051-058-059-020800-
   Central Minnesota

CITY           SKY/WX    TMP DP  RH WIND       PRES   REMARKS
ST CLOUD       CLOUDY    30  23  75 NW8       30.06R WCI  22
PAYNESVILLE    CLOUDY    30  24  77 NW5       30.07R WCI  25
AITKIN         PTCLDY    28  19  69 NW6       30.03R WCI  22
PINE RIVER     CLOUDY    27  21  80 NW3       30.08R
BRAINERD       CLOUDY    28  21  75 NW10      30.05R WCI  19
STAPLES        CLOUDY    27  21  80 NW5       30.06R WCI  21
LONG PRAIRIE   CLOUDY    28  23  80 W9        30.07R WCI  20
LITTLE FALLS   CLOUDY    30  21  69 NW3       30.07R
LITCHFIELD     CLOUDY    30  25  80 NW8       30.07R WCI  23
BUFFALO        CLOUDY    31  23  72 W8        30.07R WCI  24
MAPLE LAKE     CLOUDY    32  25  77 NW5       30.07R WCI  27
$$
MNZ037-044-045-052-053-020800-
   East Central Minnesota

CITY           SKY/WX    TMP DP  RH WIND       PRES   REMARKS
PRINCETON      CLOUDY    32  25  74 W7        30.06R WCI  26
MORA           CLOUDY    30  23  74 CALM      30.07R
CAMBRIDGE      CLOUDY    32  21  64 N5        30.04R WCI  27
RUSH CITY      CLOUDY    28  21  74 NW8       30.06R WCI  20
MOOSE LAKE     CLOUDY    30  23  74 NW3       30.01R
HINCKLEY       CLOUDY    30  23  74 CALM      30.05R
CLOQUET        CLOUDY    28  21  74 NW7       30.00R WCI  21
MCGREGOR       CLOUDY    28  23  80 NW5       30.04R WCI  23
$$
MNZ071>073-080-081-089-090-097-098-020800-
   Southwest Minnesota

CITY           SKY/WX    TMP DP  RH WIND       PRES   REMARKS
MONTEVIDEO     CLOUDY    30  28  93 N7        30.11R WCI  23
GRANITE FALLS  CLOUDY    32  28  85 NW8       30.11R WCI  25
CANBY          CLOUDY    31  26  81 CALM      30.11R
MARSHALL       CLOUDY    30  26  85 NW13      30.09R WCI  20
REDWOOD FALLS  CLOUDY    31  24  75 N7        30.08R WCI  24
OLIVIA         CLOUDY    32  28  86 NW7       30.07R WCI  26
PIPESTONE      CLOUDY    30  28  93 NE5       30.07R WCI  25
WINDOM         CLOUDY    30  27  86 CALM      30.08R
WORTHINGTON    CLOUDY    31  28  89 N9        30.08R WCI  23
JACKSON        CLOUDY    30  28  93 NW12      30.07S WCI  21
TRACY          CLOUDY    31  28  88 N8        30.08R WCI  24
SLAYTON        CLOUDY    29  27  92 N8        30.08R WCI  21
$$
MNZ065>067-074>077-082>085-091>093-020800-
   South Central Minnesota

CITY           SKY/WX    TMP DP  RH WIND       PRES   REMARKS
MANKATO        CLOUDY    32  29  88 NW9       30.06R WCI  24
NEW ULM        CLOUDY    30  27  86 NW9       30.07R WCI  22
ST JAMES       CLOUDY    32  27  80 NW13      30.09R WCI  22
GLENCOE        CLOUDY    33  26  77 NW5       30.06R WCI  28
FARIBAULT      CLOUDY    34  25  69 W8        30.04R WCI  27
OWATONNA       CLOUDY    34  27  75 NW7       30.04R WCI  28
WASECA         CLOUDY    32  30  93 W9        30.06R WCI  24
ALBERT LEA     CLOUDY    36  34  93 NW7       30.04R
$$
MNZ078>079-086>088-094>096-020800-
   Southeast Minnesota

CITY           SKY/WX    TMP DP  RH WIND       PRES   REMARKS
ROCHESTER      CLOUDY    33  28  81 NW13      30.02R WCI  24
RED WING       CLOUDY    34  23  64 NW6       30.04R WCI  29
STANTON        CLOUDY    33  27  76 N5        30.03R WCI  29
DODGE CENTER   CLOUDY    34  27  75 NW7       30.02R WCI  28
WINONA         CLOUDY    36  28  75 NW10      30.03R
AUSTIN         CLOUDY    34  30  86 NW9       30.02R WCI  26
PRESTON        CLOUDY    33  29  86 NW8       30.01S WCI  26
$$
ABBREVIATIONS USED IN REMARKS
   TC - TEMPERATURES IN CELSIUS
  WCI - WIND CHILL INDEX
   HX - HEAT INDEX
  VSB - VISIBILITY
$$




USA.gov is the U.S. government's official web portal to all federal, state and local government web resources and services.